Location: Arboyeti
(42.1122°N, 44.6017°E)
Time: 20:42:30
(UTC+00:00)

ATLAS 3B R/B - Pass Details

Date: 19 April 2021
Orbit: 1006 x 1189 km, 63.8° (Epoch: 21 April)

Event Time Altitude Azimuth Distance (km) Brightness Sun altitude
Rises 18:07:51 0° 320° (NW) 3,909 7.1 -23.4°
Reaches altitude 10° 18:10:34 10° 315° (NW) 2,975 6.1 -23.8°
Maximum altitude 18:17:18 48° 244° (WSW) 1,457 3.4 -24.7°
Enters shadow 18:20:30 30° 190° (S) 1,925 3.7 -25.1°
